Location: Caltech
(34.1382°N, 118.1253°W)
Time: 11:28:16
(UTC-08:00)

BREEZE M DEB (TANK) - Visible Passes

Search period start: 27 November 2014 00:00
Search period end: 07 December 2014 00:00
Orbit: 341 x 13811 km, 49.6° (Epoch: 26 November)

Date Brightness Start Highest point End Pass type
(mag) Time Alt. Az. Time Alt. Az. Time Alt. Az.
27 Nov 6.1 03:50:30 13° S 03:50:30 13° S 03:51:34 10° SSE visible
27 Nov 5.9 20:22:26 10° WSW 20:42:30 45° NW 20:42:30 45° NW visible
28 Nov 6.0 17:19:39 10° SSW 18:09:44 68° SE 18:16:55 25° ENE visible
29 Nov 5.5 19:43:09 10° WSW 20:09:32 55° NW 20:10:12 54° NNW visible
30 Nov 6.3 16:40:11 10° SSW 17:35:00 61° SE 17:44:36 15° ENE visible
30 Nov 7.3 22:02:11 10° WNW 22:03:28 12° WNW 22:03:28 12° WNW visible
01 Dec 5.4 19:03:08 10° WSW 19:35:29 64° NW 19:37:50 52° NNE visible
02 Dec 6.9 21:25:07 10° WNW 21:31:03 19° WNW 21:31:03 19° WNW visible
03 Dec 5.5 18:22:29 10° SW 19:01:17 74° NW 19:05:23 40° NE visible
04 Dec 6.4 20:47:21 10° W 20:58:34 27° NW 20:58:34 27° NW visible
05 Dec 5.8 17:41:23 10° SW 18:26:53 83° NW 18:32:52 27° NE visible
06 Dec 6.0 20:08:44 10° W 20:25:53 34° NW 20:26:01 34° NNW visible
